TimeCDT,TemperatureF,Dew PointF,Humidity,Sea Level PressureIn,VisibilityMPH,Wind Direction,Wind SpeedMPH,Gust SpeedMPH,PrecipitationIn,Events,Conditions,WindDirDegrees,DateUTC
12:53 AM,50.0,46.0,86,30.13,10.0,Calm,Calm,-,N/A,,Clear,0,2013-04-06 05:53:00
1:53 AM,51.1,44.1,77,30.13,10.0,Calm,Calm,-,N/A,,Clear,0,2013-04-06 06:53:00
2:53 AM,48.9,45.0,86,30.12,10.0,Calm,Calm,-,N/A,,Clear,0,2013-04-06 07:53:00
3:53 AM,48.9,46.0,90,30.11,10.0,Calm,Calm,-,N/A,,Clear,0,2013-04-06 08:53:00
4:53 AM,50.0,45.0,83,30.10,10.0,Calm,Calm,-,N/A,,Clear,0,2013-04-06 09:53:00
5:53 AM,51.1,46.0,83,30.11,10.0,Calm,Calm,-,N/A,,Clear,0,2013-04-06 10:53:00
6:53 AM,52.0,46.9,83,30.11,10.0,Calm,Calm,-,N/A,,Clear,0,2013-04-06 11:53:00
7:53 AM,53.1,48.0,83,30.12,10.0,SE,3.5,-,N/A,,Clear,130,2013-04-06 12:53:00
8:53 AM,57.9,48.9,72,30.12,10.0,Variable,4.6,-,N/A,,Clear,0,2013-04-06 13:53:00
9:53 AM,63.0,50.0,63,30.13,10.0,Variable,5.8,-,N/A,,Clear,0,2013-04-06 14:53:00
10:53 AM,66.9,48.9,52,30.14,10.0,SSE,10.4,-,N/A,,Clear,160,2013-04-06 15:53:00
11:53 AM,69.1,50.0,51,30.16,10.0,South,10.4,-,N/A,,Clear,190,2013-04-06 16:53:00
12:53 PM,70.0,50.0,49,30.14,10.0,South,15.0,-,N/A,,Clear,190,2013-04-06 17:53:00
1:53 PM,71.1,54.0,55,30.12,10.0,South,16.1,20.7,N/A,,Mostly Cloudy,190,2013-04-06 18:53:00
2:53 PM,70.0,53.1,55,30.10,10.0,SSW,12.7,-,N/A,,Mostly Cloudy,200,2013-04-06 19:53:00
3:53 PM,68.0,51.1,55,30.07,10.0,South,8.1,-,N/A,,Scattered Clouds,170,2013-04-06 20:53:00
4:53 PM,68.0,52.0,56,30.06,10.0,SSE,6.9,-,N/A,,Partly Cloudy,160,2013-04-06 21:53:00
5:53 PM,66.9,52.0,59,30.05,10.0,South,9.2,-,N/A,,Scattered Clouds,180,2013-04-06 22:53:00
6:53 PM,66.9,52.0,59,30.04,10.0,South,9.2,-,N/A,,Mostly Cloudy,190,2013-04-06 23:53:00
7:53 PM,64.0,53.1,67,30.05,10.0,South,5.8,-,N/A,,Clear,180,2013-04-07 00:53:00
8:53 PM,61.0,54.0,78,30.05,10.0,Calm,Calm,-,N/A,,Clear,0,2013-04-07 01:53:00
9:53 PM,59.0,55.0,87,30.06,10.0,Calm,Calm,-,N/A,,Overcast,0,2013-04-07 02:53:00
10:53 PM,60.1,54.0,80,30.06,10.0,SSE,3.5,-,N/A,,Clear,160,2013-04-07 03:53:00
11:53 PM,60.1,54.0,80,30.05,10.0,SE,3.5,-,N/A,,Mostly Cloudy,140,2013-04-07 04:53:00